Date String (YYYY-MM-DD hh:mm:ss) UTC,Instrument flags,absolute air pressure of the measurement (hPa),sample flow rate (lpm),inlet stack bypass flow (lpm),air temperature of the measurement (°C),ambient temperature measured by the external sensor (°C),aerosol sample conditioner tube jacket temperature (°C),OPC LED temperature (°C),internal box temperature (°C),relative humidity of the measurement (%),span deviation,mass concentration of particles derived from Lorenz-Mie calculation of OPC scattering (μg/m³),mass concentration of particles derived from Lorenz-Mie calculation of OPC scattering (μg/m³),mass concentration of particles derived from Lorenz-Mie calculation of OPC scattering (μg/m³)
DateTimeUTC,F1_M11,P_M11,Q1_M11,Q2_M11,T1_M11,T2_M11,T3_M11,T4_M11,T5_M11,U1_M11,ZSPAN_M11,X0_M11,X2_M11,X1_M11
2023-06-25 02:00:00,SystemResetWarning,0831.2,4.98,000.00,029.4,026.0,000.0,037.9,030.8,10.4,0003.8,0013.96,0006.50,0005.84
2023-06-25 02:01:00,SystemResetWarning,0831.2,5.00,000.00,029.4,026.4,000.0,037.9,030.9,10.7,0004.0,0012.92,0006.48,0005.84
2023-06-25 02:02:00,SystemResetWarning,0831.2,5.02,000.00,029.4,026.8,000.0,037.9,030.9,11.2,0004.3,0012.90,0006.47,0005.82
2023-06-25 02:03:00,SystemResetWarning,0831.3,5.00,000.00,029.4,027.2,000.0,037.9,031.0,11.2,0004.0,0013.08,0006.46,0005.81
2023-06-25 02:04:00,SystemResetWarning,0831.3,4.99,000.00,029.5,027.5,000.0,037.9,031.1,11.2,0004.0,0013.71,0006.44,0005.80
2023-06-25 02:05:00,SystemResetWarning,0831.3,5.01,000.00,029.5,027.7,000.0,037.9,031.1,10.4,0004.1,0015.08,0006.50,0005.81
2023-06-25 02:06:00,SystemResetWarning,0831.3,5.01,000.00,029.5,027.9,000.0,038.0,031.2,10.3,0004.0,0015.02,0006.52,0005.82
2023-06-25 02:07:00,SystemResetWarning,0831.3,4.97,000.00,029.6,026.8,000.0,037.9,031.2,10.2,0004.0,0014.85,0006.53,0005.82
2023-06-25 02:08:00,SystemResetWarning,0831.3,5.01,000.00,029.5,025.2,000.0,037.9,031.1,9.9,0004.1,0014.25,0006.53,0005.81
2023-06-25 02:09:00,SystemResetWarning,0831.3,5.02,000.00,029.5,025.3,000.0,037.8,031.0,10.1,0004.0,0015.12,0006.56,0005.82
2023-06-25 02:10:00,SystemResetWarning,0831.3,4.99,000.00,029.4,025.7,000.0,037.8,030.8,9.6,0003.8,0014.61,0006.56,0005.82
2023-06-25 02:11:00,SystemResetWarning,0831.3,5.00,000.00,029.4,026.1,000.0,037.9,030.8,9.4,0003.8,0013.91,0006.59,0005.83
2023-06-25 02:12:00,SystemResetWarning,0831.3,5.00,000.00,029.4,026.5,000.0,037.9,030.8,9.4,0003.8,0013.95,0006.60,0005.83
2023-06-25 02:13:00,SystemResetWarning,0831.4,5.00,000.00,029.4,026.9,000.0,037.9,030.9,8.9,0003.5,0013.90,0006.58,0005.82
2023-06-25 02:14:00,SystemResetWarning,0831.3,5.00,000.00,029.4,027.2,000.0,037.9,031.0,8.5,0004.1,0014.43,0006.55,0005.81
2023-06-25 02:15:00,SystemResetWarning,0831.4,5.00,000.00,029.5,027.5,000.0,037.9,031.1,8.6,0004.1,0014.21,0006.55,0005.80
2023-06-25 02:16:00,SystemResetWarning,0831.4,5.00,000.00,029.5,027.8,000.0,037.9,031.1,8.9,0004.1,0013.01,0006.55,0005.78
2023-06-25 02:17:00,SystemResetWarning,0831.5,5.00,000.00,029.5,028.0,000.0,038.0,031.2,9.3,0004.5,0013.52,0006.55,0005.76
2023-06-25 02:18:00,SystemResetWarning,0831.4,4.99,000.00,029.6,028.0,000.0,038.0,031.3,8.7,0004.6,0013.49,0006.48,0005.74
2023-06-25 02:19:00,SystemResetWarning,0831.5,4.99,000.00,029.6,026.3,000.0,037.9,031.3,9.2,0004.3,0013.48,0006.48,0005.74
2023-06-25 02:20:00,SystemResetWarning,0831.4,5.00,000.00,029.6,025.2,000.0,037.9,031.2,9.4,0004.3,0012.85,0006.50,0005.74
2023-06-25 02:21:00,SystemResetWarning,0831.4,5.02,000.00,029.5,025.4,000.0,037.9,031.0,9.6,0004.0,0012.51,0006.46,0005.73
2023-06-25 02:22:00,SystemResetWarning,0831.5,4.99,000.00,029.5,025.8,000.0,037.9,030.9,9.6,0004.1,0012.48,0006.43,0005.70
2023-06-25 02:23:00,SystemResetWarning,0831.4,5.00,000.00,029.4,026.2,000.0,037.9,030.9,9.8,0004.2,0012.48,0006.41,0005.67
2023-06-25 02:24:00,SystemResetWarning,0831.5,5.00,000.00,029.4,026.6,000.0,037.9,030.9,9.9,0004.3,0012.63,0006.41,0005.66
2023-06-25 02:25:00,SystemResetWarning,0831.6,4.99,000.00,029.5,027.0,000.0,037.9,031.0,9.9,0003.9,0011.96,0006.40,0005.64
2023-06-25 02:26:00,SystemResetWarning,0831.7,5.00,000.00,029.5,027.3,000.0,037.9,031.0,10.2,0003.6,0011.65,0006.36,0005.62
2023-06-25 02:27:00,SystemResetWarning,0831.6,5.00,000.00,029.5,027.6,000.0,038.0,031.1,10.7,0003.7,0011.42,0006.30,0005.60
2023-06-25 02:28:00,SystemResetWarning,0831.7,5.01,000.00,029.5,027.8,000.0,038.0,031.2,11.2,0003.8,0011.65,0006.23,0005.58
2023-06-25 02:29:00,SystemResetWarning,0831.7,5.00,000.00,029.6,028.0,000.0,038.0,031.2,11.8,0004.2,0011.60,0006.24,0005.57
2023-06-25 02:30:00,SystemResetWarning,0832.0,4.99,000.00,029.6,027.8,000.0,038.0,031.3,12.6,0004.2,0011.68,0006.24,0005.54
2023-06-25 02:31:00,SystemResetWarning,0831.9,4.99,000.00,029.6,025.7,000.0,037.9,031.3,13.1,0004.1,0011.73,0006.23,0005.51
2023-06-25 02:32:00,SystemResetWarning,0831.8,5.01,000.00,029.6,025.2,000.0,037.9,031.2,13.4,0004.5,0012.19,0006.19,0005.49
2023-06-25 02:33:00,SystemResetWarning,0831.8,5.01,000.00,029.5,025.5,000.0,037.9,030.9,13.6,0004.5,0012.98,0006.18,0005.47
2023-06-25 02:34:00,SystemResetWarning,0831.8,4.99,000.00,029.5,025.9,000.0,037.9,030.8,14.0,0004.8,0014.00,0006.21,0005.47
2023-06-25 02:35:00,SystemResetWarning,0831.9,4.99,000.00,029.4,026.3,000.0,037.9,030.9,14.4,0004.6,0014.37,0006.16,0005.41
2023-06-25 02:36:00,SystemResetWarning,0832.0,5.00,000.00,029.5,026.7,000.0,037.9,030.9,14.9,0004.6,0014.67,0006.17,0005.38
2023-06-25 02:37:00,SystemResetWarning,0832.0,5.01,000.00,029.5,027.0,000.0,037.9,031.0,15.1,0004.8,0015.20,0006.15,0005.33
2023-06-25 02:38:00,SystemResetWarning,0832.0,5.00,000.00,029.5,027.3,000.0,038.0,031.0,15.3,0004.7,0015.97,0006.12,0005.29
2023-06-25 02:39:00,SystemResetWarning,0832.1,4.99,000.00,029.5,027.6,000.0,038.0,031.1,15.4,0004.6,0015.60,0006.08,0005.24
2023-06-25 02:40:00,SystemResetWarning,0832.1,5.00,000.00,029.5,027.8,000.0,038.0,031.2,15.6,0004.2,0015.56,0006.07,0005.18
2023-06-25 02:41:00,SystemResetWarning,0832.1,5.00,000.00,029.6,028.0,000.0,038.0,031.3,15.6,0004.4,0016.43,0005.99,0005.12
2023-06-25 02:42:00,SystemResetWarning,0832.2,5.00,000.00,029.6,028.1,000.0,038.0,031.3,15.6,0004.6,0016.75,0005.89,0005.04
2023-06-25 02:43:00,SystemResetWarning,0832.2,5.00,000.00,029.7,028.2,000.0,038.0,031.3,15.7,0004.5,0017.77,0005.88,0004.98
2023-06-25 02:44:00,SystemResetWarning,0832.2,4.98,000.00,029.7,026.4,000.0,038.0,031.3,15.6,0004.5,0018.29,0005.91,0004.91
2023-06-25 02:45:00,SystemResetWarning,0832.2,5.02,000.00,029.6,025.2,000.0,037.9,031.2,15.6,0004.3,0018.70,0005.83,0004.83
2023-06-25 02:46:00,SystemResetWarning,0832.2,5.00,000.00,029.6,025.4,000.0,037.9,031.1,15.6,0004.3,0018.10,0005.76,0004.77
2023-06-25 02:47:00,SystemResetWarning,0832.3,4.98,000.00,029.5,025.7,000.0,037.9,030.9,15.8,0004.2,0018.56,0005.74,0004.73
2023-06-25 02:48:00,SystemResetWarning,0832.3,5.00,000.00,029.5,026.1,000.0,038.0,030.9,15.9,0004.2,0017.82,0005.71,0004.69
2023-06-25 02:49:00,SystemResetWarning,0832.4,5.01,000.00,029.5,026.6,000.0,038.0,031.0,15.8,0004.4,0018.83,0005.70,0004.64
2023-06-25 02:50:00,SystemResetWarning,0832.5,5.01,000.00,029.5,026.9,000.0,038.0,031.0,15.6,0004.4,0018.89,0005.71,0004.61
2023-06-25 02:51:00,SystemResetWarning,0832.5,4.98,000.00,029.5,027.2,000.0,038.0,031.1,15.7,0004.4,0019.54,0005.74,0004.59
2023-06-25 02:52:00,SystemResetWarning,0832.5,5.00,000.00,029.5,027.5,000.0,038.0,031.1,15.8,0004.1,0019.21,0005.73,0004.56
2023-06-25 02:53:00,SystemResetWarning,0832.5,5.00,000.00,029.6,027.7,000.0,038.0,031.2,15.8,0003.8,0019.51,0005.76,0004.56
2023-06-25 02:54:00,SystemResetWarning,0832.5,5.01,000.00,029.6,027.9,000.0,038.0,031.2,15.8,0003.9,0019.75,0005.75,0004.54
2023-06-25 02:55:00,SystemResetWarning,0832.6,5.01,000.00,029.6,028.0,000.0,038.0,031.3,15.7,0004.2,0018.23,0005.68,0004.53
2023-06-25 02:56:00,SystemResetWarning,0832.6,4.99,000.00,029.6,028.1,000.0,038.0,031.3,15.8,0004.6,0018.29,0005.67,0004.52
2023-06-25 02:57:00,SystemResetWarning,0832.6,4.99,000.00,029.7,028.2,000.0,038.1,031.4,15.8,0004.7,0018.68,0005.72,0004.51
2023-06-25 02:58:00,SystemResetWarning,0832.7,5.01,000.00,029.7,028.3,000.0,038.1,031.4,15.8,0005.1,0018.01,0005.69,0004.51
2023-06-25 02:59:00,SystemResetWarning,0832.7,5.00,000.00,029.7,027.6,000.0,038.1,031.4,16.2,0005.1,0017.91,0005.66,0004.51
